Regional Weather Roundup
Issued by NWS Binghamton, NY

Home | Current Version | Previous Version | Text Only | Print | Product List | Glossary On
Versions: 1 2 3 4 5 6 7 8 9 10 11 12 13 14 15 16 17 18 19 20 21 22 23 24 25 26 27 28 29 30 31 32 33 34 35 36 37 38 39 40 41 42 43 44 45 46 47 48 49 50
000
ASUS41 KBGM 030610
RWRBGM
RWRBGM
BINGHAMTON REGIONAL WEATHER ROUNDUP
NATIONAL WEATHER SERVICE BINGHAMTON NY
200 AM EDT MON AUG 03 2015

Note: "fair" indicates few or no clouds below 12,000 feet with no
significant weather and/or obstructions to visibility.

* = Station(s) that does not report precipitation, such as rain,
snow, etc, also no thunder or fog.

!NYZ009-015>018-022>025-036-037-044>046-055>057-062-030700
...CENTRAL NEW YORK...

CITY           SKY/WX    TMP DP  RH WIND       PRES   REMARKS
BINGHAMTON     MOCLDY    68  59  73 S7        29.82F
CORTLAND       FAIR      70  61  73 SW9       29.79F
DANSVILLE      CLOUDY    77  61  57 S8        29.73F
ELMIRA         MOCLDY    74  63  68 W9        29.76F
ITHACA         MOCLDY    69  60  73 SE8       29.78F
HORNELL          N/A     73  61  64 S6        29.79F
MONTICELLO     CLEAR     61  57  88 MISG      29.89S
NORWICH        CLEAR     66  59  77 CALM      29.80F
ONEONTA        CLEAR     68  55  64 CALM      29.84S
PENN YAN       MOCLDY    74  62  66 S15       29.74F
ROME           MOCLDY    69  60  73 E7        29.74F
SIDNEY         CLEAR     70  63  78 S7        29.81F
SYRACUSE       CLOUDY    77  61  57 VRB6      29.69F
$$

!PAZ038>040-043-044-047-048-072-030700
...NORTHEAST PENNSYLVANIA...

CITY           SKY/WX    TMP DP  RH WIND       PRES   REMARKS
HAZLETON       CLEAR     68  59  73 CALM      29.91F
SCRANTON       PTCLDY    73  58  59 W3        29.84F
$$
&&
KEY
WCI = WIND CHILL INDEX
VSB = VISIBILITY
HX  = HEAT INDEX
$$


USA.gov is the U.S. government's official web portal to all federal, state and local government web resources and services.